Tracking 28799 objects as of 18-Apr-2024
HD Live streaming from Space Station
objects crossing your sky now

COSMOS 886 DEB

Track COSMOS 886 DEB now!
10-day predictions


NORAD ID: 9823
Int'l Code: 1976-126AK
Perigee: 574.3 km
Apogee: 1,989.1 km
Inclination: 65.8 °
Period: 111.0 minutes
Semi major axis: 7652 km
RCS: 0.0286 m2 (small)
Launch date: December 27, 1976
Source: Commonwealth of Independent States (former USSR) (CIS)
Launch site: TYURATAM MISSILE AND SPACE COMPLEX (TTMTR)

Note: This is SATELLITE DEBRIS
Your satellite tracking list
Your tracking list is empty




NASA's NSSDC Master Catalog

Two Line Element Set (TLE):
1 09823U 76126AK  24108.09462929  .00007109  00000-0  31504-2 0  9992
2 09823  65.7967  90.6240 0924410   1.1584 359.1296 12.96824788212313
Source of the keplerian elements: AFSPC